[[{"header":{"parameterUnit":"m.s-1","parameterCategory":2,"la1":30.2991,"la2":30.254,"lo1":-89.0895,"lo2":-89.0444,"dy":0.0017,"dx":0.0017,"nx":28,"ny":28,"refTime":"2024-06-04T03:00:00:Z","depth":"0","parameterNumber":2,"parameterNumberName":"U-component_of_CURRENTS"},"data":[0,0,0,0,0,0,0,0,0,0,0,0,0,0,0,0,0,0,0,0,0,0,0,0,0,0,0,0,0,0,0,0,0,0,0,0,0,0,0,0,0,0,0,0,0,0,0,0,0,0,0,0,0,0,0,0,0,0,-0.2199,-0.2199,0,-0.2238,-0.2238,-0.2239,-0.2204,-0.2203,-0.2201,-0.22,-0.2191,-0.2192,-0.2193,0,0,0,0,0,0,0,0,0,0,0,0,0,-0.2154,-0.2155,-0.2199,-0.2199,-0.22,-0.2238,-0.2238,-0.2239,-0.2204,-0.2202,-0.2201,-0.2199,-0.2191,-0.2192,-0.2193,0,0,0,0,0,0,0,0,0,0,0,0,0,-0.218,-0.2155,-0.2199,-0.2188,-0.2188,-0.2238,-0.2238,-0.2239,-0.2204,-0.2202,-0.2201,-0.2199,-0.2191,-0.2192,-0.2194,-0.2241,0,0,-0.2198,-0.2199,0,0,0,0,0,0,0,0,-0.2178,-0.2181,-0.2189,-0.2189,-0.2189,-0.2215,-0.222,-0.2238,-0.2205,-0.2197,-0.22,-0.2198,-0.2197,-0.2198,-0.2209,-0.2241,-0.2241,-0.2198,-0.2199,-0.22,-0.22,0,0,0,0,0,0,0,-0.2177,-0.218,-0.2213,-0.219,-0.219,-0.2203,-0.2203,-0.2223,-0.2205,-0.2197,-0.2195,-0.2202,-0.2196,-0.2207,-0.2208,-0.2241,-0.2198,-0.22,-0.22,-0.2201,-0.2311,-0.2313,0,0,0,0,0,0,-0.2174,-0.2178,-0.2212,-0.2214,-0.218,-0.2205,-0.2206,-0.2208,-0.2206,-0.2205,-0.2204,-0.2201,-0.2206,-0.2206,-0.2207,-0.2245,-0.22,-0.2201,-0.2202,-0.2309,-0.2311,-0.2314,0,0,0,0,0,0,-0.2173,-0.2176,-0.221,-0.2198,-0.2204,-0.2207,-0.221,-0.2209,-0.221,-0.2212,-0.2209,-0.2203,-0.2204,-0.2205,-0.2229,-0.2245,-0.2202,-0.2203,-0.2306,-0.231,-0.2312,-0.2333,0,0,0,0,0,0,-0.2171,-0.2176,-0.2172,-0.2198,-0.2204,-0.2239,-0.2212,-0.2212,-0.2218,-0.2214,-0.2212,-0.2209,-0.2203,-0.2227,-0.2231,-0.2246,-0.2204,-0.2304,-0.2308,-0.2311,-0.2329,-0.2336,-0.2342,0,0,0,0,0,-0.2169,-0.2174,-0.2172,-0.2176,-0.22,-0.224,-0.2245,-0.224,-0.222,-0.2231,-0.2231,-0.2208,-0.2254,-0.2231,-0.2234,-0.225,-0.2302,-0.2307,-0.2311,-0.2327,-0.2335,-0.2342,0,0,0,0,0,0,-0.2147,-0.2173,-0.2169,-0.2179,-0.2207,-0.2235,-0.2241,-0.2243,-0.2254,-0.2242,-0.2235,-0.2235,-0.2261,-0.2265,-0.2239,-0.2298,-0.2275,-0.2281,-0.2286,-0.2293,-0.2299,-0.2275,-0.2205,0,0,0,0,0,-0.2145,-0.2152,-0.2185,-0.2191,-0.2205,-0.2223,-0.2236,-0.224,-0.2256,-0.2257,-0.226,-0.2269,-0.2289,-0.2295,-0.2313,-0.2347,-0.2311,-0.2363,-0.2369,-0.2374,-0.236,-0.2327,-0.2327,-0.2329,-0.2329,-0.2329,0,0,-0.2137,-0.2151,-0.2154,-0.2187,-0.2203,-0.224,-0.2225,-0.2248,-0.2274,-0.2257,-0.2283,-0.2289,-0.2305,-0.2339,-0.2351,-0.2338,-0.2358,-0.238,-0.2384,-0.2366,-0.2332,-0.2331,-0.233,-0.2332,-0.2331,-0.2331,0,0,-0.2142,-0.214,-0.2158,-0.2189,-0.2223,-0.2243,-0.2251,-0.2285,-0.2288,-0.233,-0.2319,-0.2329,-0.2373,-0.2374,-0.2384,-0.2439,-0.2391,-0.2458,-0.2465,-0.2434,-0.2432,-0.243,-0.2381,-0.2374,-0.246,-0.246,-0.246,0,-0.2132,-0.2157,-0.2171,-0.2208,-0.2231,-0.2246,-0.2282,-0.2304,-0.2341,-0.2344,-0.234,-0.2378,-0.2386,-0.2409,-0.243,-0.2447,-0.2417,-0.2429,-0.2436,-0.2434,-0.2431,-0.2382,-0.2374,-0.2462,-0.2461,-0.2461,-0.2461,0,-0.2162,-0.2186,-0.2201,-0.2248,-0.2279,-0.2311,-0.235,-0.237,-0.2377,-0.2393,-0.2413,-0.2423,-0.2435,-0.2453,-0.246,-0.2459,-0.2439,-0.2443,-0.2404,-0.2431,-0.2379,-0.237,-0.2464,-0.2463,-0.2463,-0.2462,0,0,-0.2124,-0.2207,-0.2209,-0.2237,-0.2301,-0.2327,-0.2373,-0.241,-0.2417,-0.2446,-0.2448,-0.2486,-0.2467,-0.2477,-0.2479,-0.2457,-0.2418,-0.2446,-0.2444,-0.2374,-0.2333,-0.2243,-0.2224,-0.242,-0.2419,-0.2418,-0.2301,0,-0.214,-0.2207,-0.2248,-0.2306,-0.2342,-0.2378,-0.2417,-0.2449,-0.2466,-0.2474,-0.2469,-0.2479,-0.2486,-0.2482,-0.2465,-0.2434,-0.2398,-0.2448,-0.2338,-0.2334,-0.2231,-0.2213,-0.2114,-0.1995,-0.2292,-0.2291,-0.229,0,-0.2149,-0.2193,-0.2255,-0.2326,-0.2342,-0.238,-0.2416,-0.2457,-0.2477,-0.2485,-0.2484,-0.248,-0.2464,-0.246,-0.2394,-0.2426,-0.2377,-0.2344,-0.2339,-0.2236,-0.2228,-0.202,-0.1968,-0.1956,-0.2276,-0.2277,-0.2278,0,-0.2099,-0.219,-0.2232,-0.2262,-0.235,-0.237,-0.2408,-0.2446,-0.2463,-0.2477,-0.2471,-0.2462,-0.2438,-0.2393,-0.2333,-0.2363,-0.2233,-0.2266,-0.213,-0.2123,-0.2005,-0.1989,-0.1902,-0.2193,-0.2193,-0.2193,-0.2194,0,-0.2092,-0.2121,-0.2209,-0.2233,-0.2267,-0.2339,-0.2361,-0.2398,-0.243,-0.2425,-0.246,-0.2425,-0.2418,-0.2353,-0.2309,-0.2174,-0.2208,-0.2106,-0.208,-0.2012,-0.1998,-0.1956,-0.1996,-0.2189,-0.219,-0.2191,-0.2191,0,-0.2025,-0.2093,-0.2137,-0.2223,-0.2246,-0.2263,-0.2332,-0.234,-0.2387,-0.2376,-0.2377,-0.2381,-0.229,-0.2253,-0.216,-0.2118,-0.1972,-0.1959,-0.1869,-0.1834,-0.1712,-0.1757,-0.1638,-0.1596,-0.1796,-0.1793,-0.1791,0,-0.1998,-0.2016,-0.21,-0.2114,-0.2149,-0.2191,-0.2211,-0.2295,-0.2304,-0.2323,-0.2297,-0.2238,-0.2145,-0.1982,-0.1895,-0.1771,-0.1812,-0.1634,-0.1675,-0.1661,-0.1694,-0.1744,-0.1723,-0.153,-0.1525,-0.1522,-0.1519,0,-0.1924,-0.195,-0.1983,-0.2018,-0.2044,-0.2078,-0.2117,-0.2122,-0.2195,-0.218,-0.2113,-0.2042,-0.1897,-0.1722,-0.1597,-0.1524,-0.1601,-0.1554,-0.1563,-0.1483,-0.1507,-0.1468,-0.1655,-0.1486,-0.1489,-0.1492,-0.1494,-0.1495,-0.1841,-0.184,-0.1876,-0.1896,-0.1928,-0.1934,-0.1904,-0.1943,-0.1927,-0.186,-0.1894,-0.1725,-0.1623,-0.1414,-0.1346,-0.1228,-0.1322,-0.1208,-0.1264,-0.1314,-0.1273,-0.1374,-0.117,-0.1171,-0.1172,-0.1173,-0.1174,0,-0.1726,-0.1736,-0.1749,-0.1766,-0.1741,-0.1804,-0.1806,-0.1731,-0.1647,-0.1597,-0.151,-0.1342,-0.1206,-0.114,-0.1039,-0.0975,-0.0987,-0.0967,-0.1032,-0.1025,-0.1109,-0.1096,-0.0838,-0.0838,-0.0838,-0.0838,-0.0838,-0.0838,-0.1663,-0.1632,-0.1644,-0.1567,-0.1568,-0.1485,-0.1448,-0.1343,-0.1261,-0.1056,-0.0933,-0.086,-0.0889,-0.0993,-0.0934,-0.0886,-0.0905,-0.0852,-0.0914,-0.1006,-0.1035,-0.1062,-0.1058,-0.0795,-0.0795,-0.0776,-0.0776,-0.0777]},{"header":{"parameterUnit":"m.s-1","parameterCategory":2,"la1":30.2991,"la2":30.254,"lo1":-89.0895,"lo2":-89.0444,"dy":0.0017,"dx":0.0017,"nx":28,"ny":28,"refTime":"2024-06-04T03:00:00:Z","depth":"0","parameterNumber":3,"parameterNumberName":"V-component_of_CURRENTS"},"data":[0,0,0,0,0,0,0,0,0,0,0,0,0,0,0,0,0,0,0,0,0,0,0,0,0,0,0,0,0,0,0,0,0,0,0,0,0,0,0,0,0,0,0,0,0,0,0,0,0,0,0,0,0,0,0,0,0,0,-0.0214,-0.0214,0,-0.0144,-0.0143,-0.0142,-0.0086,-0.0086,-0.0085,-0.0085,0.0048,0.0051,0.0054,0,0,0,0,0,0,0,0,0,0,0,0,0,-0.0247,-0.0247,-0.0214,-0.0214,-0.0213,-0.0144,-0.0143,-0.0142,-0.0086,-0.0086,-0.0085,-0.0085,0.0047,0.0051,0.0054,0,0,0,0,0,0,0,0,0,0,0,0,0,-0.021,-0.0247,-0.0215,-0.0178,-0.0174,-0.0144,-0.0143,-0.0142,-0.0086,-0.0086,-0.0085,-0.0084,0.0046,0.005,0.0055,0.0071,0,0,0.0069,0.0071,0,0,0,0,0,0,0,0,-0.0212,-0.0208,-0.0184,-0.018,-0.0176,-0.0124,-0.0106,-0.0068,-0.0087,-0.0118,-0.0085,-0.0084,-0.0005,0.0004,0.0016,0.0077,0.0083,0.007,0.0072,0.0074,0.0076,0,0,0,0,0,0,0,-0.0215,-0.0211,-0.0185,-0.0183,-0.0178,-0.0147,-0.0141,-0.0098,-0.0064,-0.0115,-0.0112,-0.0106,-0.0002,0.0012,0.002,0.0085,0.0069,0.0074,0.0077,0.0078,0.0189,0.0189,0,0,0,0,0,0,-0.023,-0.0214,-0.0187,-0.0183,-0.0194,-0.0147,-0.014,-0.0141,-0.0066,-0.0055,-0.0107,-0.0104,0.0003,0.0015,0.0025,0.0063,0.0074,0.0079,0.0082,0.0188,0.0189,0.0189,0,0,0,0,0,0,-0.0231,-0.0228,-0.019,-0.0197,-0.019,-0.0148,-0.0148,-0.014,-0.0125,-0.006,-0.0047,-0.0101,0.0004,0.0019,0.0063,0.0068,0.0081,0.0085,0.0188,0.0189,0.0189,0.0129,0,0,0,0,0,0,-0.0232,-0.0229,-0.0236,-0.0199,-0.0191,-0.018,-0.0148,-0.0139,-0.0123,-0.0119,-0.0051,-0.0038,0.0006,0.0056,0.0068,0.0075,0.0089,0.0188,0.0188,0.0189,0.0131,0.0127,0.0124,0,0,0,0,0,-0.0234,-0.0249,-0.0237,-0.0234,-0.0201,-0.018,-0.0174,-0.0139,-0.0124,-0.0123,-0.0073,-0.004,0.0066,0.006,0.0074,0.0082,0.0188,0.0188,0.0189,0.0133,0.0128,0.0124,0,0,0,0,0,0,-0.0268,-0.0244,-0.023,-0.0237,-0.0213,-0.0172,-0.017,-0.0146,-0.0107,-0.0102,-0.0038,-0.0022,0.0017,0.0057,0.0048,0.0114,0.0133,0.0136,0.0085,0.0082,0.0078,0.0069,0.0093,0,0,0,0,0,-0.028,-0.0284,-0.0252,-0.0258,-0.0251,-0.0212,-0.02,-0.0177,-0.0139,-0.0122,-0.0073,-0.002,0.0028,0.0059,0.0102,0.014,0.0184,0.0155,0.0151,0.0148,0.015,0.0218,0.0221,0.019,0.019,0.019,0,0,-0.0293,-0.0282,-0.0284,-0.0266,-0.0245,-0.0238,-0.0203,-0.0192,-0.0177,-0.0112,-0.008,-0.0034,0.0033,0.0074,0.0096,0.011,0.0178,0.0148,0.0145,0.0149,0.0219,0.0222,0.0225,0.019,0.019,0.019,0,0,-0.0328,-0.0316,-0.0331,-0.0315,-0.0292,-0.0265,-0.0266,-0.0227,-0.0202,-0.0169,-0.0116,-0.0066,-0.0001,0.0056,0.0092,0.0097,0.0151,0.0106,0.0092,0.0157,0.0161,0.0164,0.0213,0.0222,0.0113,0.0113,0.0112,0,-0.0346,-0.0359,-0.0331,-0.0338,-0.0327,-0.0282,-0.0287,-0.0256,-0.0206,-0.0178,-0.0168,-0.0055,-0.0006,0.0067,0.0066,0.009,0.0128,0.01,0.0153,0.0157,0.0162,0.0212,0.0222,0.011,0.011,0.011,0.0111,0,-0.0387,-0.0394,-0.0402,-0.0393,-0.0375,-0.0376,-0.0329,-0.0305,-0.0271,-0.0229,-0.0164,-0.0092,-0.0019,0.0001,0.0035,0.0096,0.0112,0.0132,0.016,0.0161,0.0214,0.0225,0.0106,0.0107,0.0108,0.0108,0,0,-0.0436,-0.0433,-0.0436,-0.0436,-0.0404,-0.0394,-0.0367,-0.0323,-0.0294,-0.0239,-0.019,-0.0111,-0.0066,-0.0022,0.0034,0.0091,0.0148,0.0118,0.0123,0.0161,0.0282,0.031,0.0326,0.0176,0.0178,0.018,0.0302,0,-0.0476,-0.0509,-0.0486,-0.0496,-0.0504,-0.0447,-0.0423,-0.0371,-0.0317,-0.0258,-0.0169,-0.011,-0.0075,-0.004,0.0024,0.0122,0.0177,0.0113,0.0281,0.0286,0.0307,0.034,0.0366,0.0479,0.0314,0.0316,0.0317,0,-0.0522,-0.0537,-0.0566,-0.0542,-0.0538,-0.0531,-0.0472,-0.0443,-0.0345,-0.0299,-0.0216,-0.0147,-0.0044,-0.0026,0.0145,0.0101,0.0181,0.0252,0.0259,0.0316,0.0336,0.0455,0.0506,0.061,0.0335,0.0334,0.0332,0,-0.0573,-0.0584,-0.061,-0.0606,-0.0577,-0.0566,-0.054,-0.0459,-0.0422,-0.0323,-0.0278,-0.0153,-0.0074,0.0039,0.0183,0.0166,0.0368,0.0367,0.0469,0.0471,0.0544,0.0549,0.0714,0.0479,0.0479,0.0479,0.0478,0,-0.0624,-0.0639,-0.064,-0.0654,-0.0666,-0.0619,-0.0601,-0.0552,-0.0468,-0.0407,-0.0306,-0.022,-0.0054,0.0083,0.019,0.0375,0.038,0.0478,0.0514,0.0522,0.0524,0.0658,0.0688,0.0483,0.0482,0.0481,0.0481,0,-0.0674,-0.0678,-0.0707,-0.0699,-0.0696,-0.0705,-0.0657,-0.0632,-0.0548,-0.0462,-0.0431,-0.0253,-0.0065,0.0098,0.0308,0.0399,0.0628,0.0613,0.0602,0.0634,0.0806,0.083,0.1016,0.1089,0.0743,0.0744,0.0746,0,-0.0703,-0.0728,-0.0753,-0.0775,-0.0777,-0.0776,-0.0765,-0.0689,-0.0644,-0.0467,-0.0421,-0.0224,-0.0047,0.0264,0.0454,0.066,0.0723,0.0783,0.0755,0.0836,0.089,0.0891,0.0938,0.0827,0.0829,0.083,0.0831,0,-0.0752,-0.0766,-0.0793,-0.0844,-0.0858,-0.0858,-0.0827,-0.079,-0.0665,-0.0559,-0.0363,-0.0209,0.0103,0.0381,0.0629,0.0738,0.0858,0.082,0.0925,0.0991,0.0985,0.1064,0.0709,0.0845,0.0844,0.0843,0.0842,0.0841,-0.0781,-0.0822,-0.0862,-0.0903,-0.0923,-0.091,-0.0854,-0.0766,-0.0654,-0.0379,-0.0295,0.0055,0.0318,0.0692,0.0817,0.1051,0.1001,0.1102,0.1131,0.113,0.1186,0.0847,0.1005,0.1005,0.1004,0.1004,0.1004,0,-0.0812,-0.0855,-0.0908,-0.0946,-0.0961,-0.0956,-0.0864,-0.073,-0.0526,-0.0247,0.0001,0.0446,0.0728,0.0981,0.1238,0.1356,0.1379,0.14,0.142,0.1459,0.1194,0.1184,0.1361,0.1361,0.1361,0.1361,0.1361,0.1361,-0.0829,-0.0893,-0.0924,-0.0962,-0.0972,-0.0886,-0.0799,-0.0556,-0.0298,0.0181,0.0568,0.0832,0.1073,0.1367,0.1608,0.1628,0.1743,0.1708,0.1779,0.1596,0.157,0.1545,0.1545,0.1795,0.1795,0.2037,0.2039,0.2041]}],[{"header":{"parameterUnit":"m.s-1","parameterCategory":2,"la1":30.2991,"la2":30.254,"lo1":-89.0895,"lo2":-89.0444,"dy":0.0017,"dx":0.0017,"nx":28,"ny":28,"refTime":"2024-06-04T03:00:00:Z","depth":"2","parameterNumber":2,"parameterNumberName":"U-component_of_CURRENTS"},"data":[0,0,0,0,0,0,0,0,0,0,0,0,0,0,0,0,0,0,0,0,0,0,0,0,0,0,0,0,0,0,0,0,0,0,0,0,0,0,0,0,0,0,0,0,0,0,0,0,0,0,0,0,0,0,0,0,0,0,-0.2012,-0.2013,0,-0.2043,-0.2044,-0.2044,-0.2017,-0.2016,-0.2015,-0.2014,-0.1997,-0.1997,-0.1998,0,0,0,0,0,0,0,0,0,0,0,0,0,-0.1962,-0.1963,-0.2012,-0.2013,-0.2013,-0.2043,-0.2044,-0.2044,-0.2017,-0.2016,-0.2015,-0.2014,-0.1997,-0.1997,-0.1998,0,0,0,0,0,0,0,0,0,0,0,0,0,-0.1986,-0.1963,-0.2012,-0.2005,-0.2004,-0.2043,-0.2044,-0.2044,-0.2017,-0.2016,-0.2014,-0.2013,-0.1996,-0.1997,-0.1998,-0.2031,0,0,-0.2,-0.2,0,0,0,0,0,0,0,0,-0.1985,-0.1988,-0.2005,-0.2005,-0.2005,-0.2026,-0.202,-0.2038,-0.2018,-0.2011,-0.2014,-0.2012,-0.2004,-0.2004,-0.2012,-0.203,-0.2029,-0.2,-0.2,-0.2001,-0.2001,0,0,0,0,0,0,0,-0.1983,-0.1987,-0.2023,-0.2006,-0.2006,-0.2011,-0.2012,-0.2023,-0.2013,-0.2011,-0.201,-0.2016,-0.2003,-0.2011,-0.2011,-0.2029,-0.2,-0.2,-0.2001,-0.2001,-0.2076,-0.2077,0,0,0,0,0,0,-0.1983,-0.1985,-0.2022,-0.2024,-0.1993,-0.2013,-0.2015,-0.202,-0.2014,-0.2013,-0.2017,-0.2015,-0.2011,-0.201,-0.201,-0.2042,-0.2001,-0.2001,-0.2002,-0.2074,-0.2076,-0.2078,0,0,0,0,0,0,-0.1981,-0.1986,-0.2021,-0.2006,-0.2011,-0.2015,-0.2021,-0.2021,-0.2023,-0.202,-0.2016,-0.2019,-0.201,-0.2009,-0.2024,-0.2041,-0.2001,-0.2002,-0.2072,-0.2075,-0.2077,-0.2109,0,0,0,0,0,0,-0.198,-0.1985,-0.1986,-0.2006,-0.2012,-0.2045,-0.2023,-0.2023,-0.2031,-0.2027,-0.2021,-0.2018,-0.2008,-0.2023,-0.2025,-0.2041,-0.2003,-0.207,-0.2073,-0.2076,-0.2106,-0.2112,-0.2118,0,0,0,0,0,-0.1978,-0.1986,-0.1985,-0.199,-0.2014,-0.2046,-0.205,-0.2047,-0.2032,-0.2041,-0.2038,-0.2018,-0.2043,-0.2025,-0.2027,-0.2043,-0.2069,-0.2072,-0.2076,-0.2104,-0.2111,-0.2118,0,0,0,0,0,0,-0.1962,-0.1986,-0.1984,-0.1998,-0.2021,-0.2042,-0.2048,-0.2051,-0.2057,-0.2048,-0.2038,-0.2036,-0.2055,-0.2053,-0.2033,-0.2076,-0.2053,-0.2057,-0.2074,-0.2081,-0.2087,-0.2069,-0.2003,0,0,0,0,0,-0.1961,-0.1972,-0.1999,-0.2009,-0.202,-0.2035,-0.2046,-0.205,-0.2061,-0.2061,-0.2061,-0.2064,-0.2076,-0.2078,-0.2087,-0.2113,-0.208,-0.2126,-0.2132,-0.2137,-0.2126,-0.21,-0.2101,-0.2089,-0.2089,-0.2089,0,0,-0.1957,-0.1971,-0.1976,-0.2006,-0.2019,-0.2049,-0.2037,-0.2058,-0.2079,-0.206,-0.2081,-0.2083,-0.2088,-0.2113,-0.2122,-0.2109,-0.2125,-0.2141,-0.2145,-0.2131,-0.2103,-0.2104,-0.2104,-0.2092,-0.2091,-0.2091,0,0,-0.1963,-0.1967,-0.1984,-0.2009,-0.2038,-0.2053,-0.2061,-0.2089,-0.2093,-0.2126,-0.2114,-0.2122,-0.2149,-0.2149,-0.2154,-0.22,-0.2157,-0.2212,-0.2224,-0.22,-0.2199,-0.2199,-0.2157,-0.2152,-0.2214,-0.2214,-0.2214,0,-0.1957,-0.198,-0.1994,-0.2025,-0.2043,-0.2057,-0.2086,-0.2106,-0.2134,-0.2139,-0.2135,-0.2161,-0.2164,-0.2181,-0.22,-0.2209,-0.2182,-0.2194,-0.2204,-0.2202,-0.2201,-0.2158,-0.2153,-0.2216,-0.2216,-0.2216,-0.2216,0,-0.1983,-0.2004,-0.2017,-0.2057,-0.2082,-0.2108,-0.2141,-0.216,-0.2168,-0.2183,-0.2201,-0.2205,-0.2213,-0.2227,-0.2228,-0.2232,-0.2211,-0.2211,-0.2177,-0.2203,-0.2158,-0.2151,-0.2219,-0.2219,-0.2218,-0.2217,0,0,-0.1953,-0.2022,-0.2023,-0.2046,-0.2099,-0.212,-0.216,-0.2194,-0.2203,-0.2229,-0.2234,-0.2263,-0.2251,-0.2255,-0.2254,-0.2239,-0.2213,-0.2225,-0.2222,-0.2167,-0.2142,-0.2055,-0.2039,-0.2213,-0.2212,-0.2211,-0.2112,0,-0.1964,-0.2018,-0.2053,-0.2099,-0.2127,-0.2159,-0.2193,-0.2224,-0.2242,-0.2253,-0.2252,-0.2263,-0.2268,-0.2266,-0.2254,-0.2226,-0.2198,-0.2238,-0.2138,-0.2135,-0.2041,-0.2029,-0.1898,-0.1793,-0.2105,-0.2104,-0.2103,0,-0.1969,-0.2005,-0.2054,-0.2112,-0.2126,-0.2157,-0.2191,-0.2227,-0.2253,-0.2263,-0.2269,-0.2268,-0.226,-0.2255,-0.2201,-0.2227,-0.2184,-0.2155,-0.2151,-0.2048,-0.2035,-0.182,-0.1768,-0.2092,-0.2093,-0.2094,-0.2094,0,-0.1923,-0.1998,-0.2031,-0.2054,-0.2128,-0.2147,-0.218,-0.222,-0.2237,-0.226,-0.2259,-0.2258,-0.224,-0.2204,-0.2153,-0.2177,-0.207,-0.2095,-0.1969,-0.1962,-0.1817,-0.1799,-0.2035,-0.2035,-0.2036,-0.2036,-0.2036,0,-0.1911,-0.1933,-0.2011,-0.2027,-0.2054,-0.2119,-0.214,-0.2175,-0.221,-0.2209,-0.2251,-0.2225,-0.2225,-0.2172,-0.2134,-0.2015,-0.2051,-0.195,-0.1925,-0.1826,-0.1811,-0.205,-0.2053,-0.2032,-0.2033,-0.2034,-0.2034,0,-0.1848,-0.1906,-0.1939,-0.2013,-0.2033,-0.2046,-0.2109,-0.2119,-0.2171,-0.2164,-0.2169,-0.2187,-0.2113,-0.2085,-0.2007,-0.1967,-0.1881,-0.1827,-0.1702,-0.1664,-0.1796,-0.1803,-0.1682,-0.1678,-0.1675,-0.1672,-0.167,0,-0.182,-0.1832,-0.1901,-0.1911,-0.1941,-0.1978,-0.1997,-0.2077,-0.2088,-0.2117,-0.2096,-0.2055,-0.198,-0.1844,-0.1759,-0.1649,-0.1742,-0.1487,-0.1512,-0.1769,-0.1758,-0.177,-0.178,-0.1335,-0.133,-0.1326,-0.1323,0,-0.1745,-0.1767,-0.179,-0.1817,-0.1839,-0.1868,-0.1905,-0.1909,-0.1981,-0.1978,-0.193,-0.1877,-0.175,-0.1574,-0.1461,-0.1393,-0.1503,-0.14,-0.1678,-0.1452,-0.1435,-0.1427,-0.145,-0.1287,-0.129,-0.1293,-0.1295,-0.1296,-0.1664,-0.1658,-0.1684,-0.1696,-0.1725,-0.173,-0.1693,-0.1736,-0.1726,-0.1675,-0.1719,-0.1579,-0.1533,-0.1265,-0.1173,-0.1108,-0.1219,-0.1189,-0.1204,-0.1223,-0.1207,-0.1186,-0.0987,-0.0989,-0.099,-0.0992,-0.0993,0,-0.1555,-0.1557,-0.1562,-0.1566,-0.1535,-0.1599,-0.1599,-0.1524,-0.1447,-0.145,-0.1379,-0.117,-0.105,-0.1006,-0.0842,-0.0814,-0.0836,-0.0791,-0.0834,-0.0868,-0.0899,-0.0871,-0.0559,-0.0558,-0.0557,-0.0556,0,0,-0.1494,-0.1454,-0.1458,-0.1366,-0.1362,-0.1249,-0.121,-0.1132,-0.1092,-0.0987,-0.0919,-0.0973,-0.0969,-0.0767,-0.0719,-0.0615,-0.0741,-0.0578,-0.0923,-0.1007,-0.1037,-0.1117,-0.111,0,0,0,0,0]},{"header":{"parameterUnit":"m.s-1","parameterCategory":2,"la1":30.2991,"la2":30.254,"lo1":-89.0895,"lo2":-89.0444,"dy":0.0017,"dx":0.0017,"nx":28,"ny":28,"refTime":"2024-06-04T03:00:00:Z","depth":"2","parameterNumber":3,"parameterNumberName":"V-component_of_CURRENTS"},"data":[0,0,0,0,0,0,0,0,0,0,0,0,0,0,0,0,0,0,0,0,0,0,0,0,0,0,0,0,0,0,0,0,0,0,0,0,0,0,0,0,0,0,0,0,0,0,0,0,0,0,0,0,0,0,0,0,0,0,-0.026,-0.026,0,-0.0195,-0.0194,-0.0193,-0.0144,-0.0144,-0.0143,-0.0143,-0.0036,-0.0033,-0.0031,0,0,0,0,0,0,0,0,0,0,0,0,0,-0.0308,-0.0308,-0.026,-0.0259,-0.0259,-0.0195,-0.0194,-0.0193,-0.0144,-0.0144,-0.0143,-0.0143,-0.0036,-0.0033,-0.003,0,0,0,0,0,0,0,0,0,0,0,0,0,-0.0269,-0.0308,-0.026,-0.0227,-0.0224,-0.0195,-0.0194,-0.0193,-0.0144,-0.0144,-0.0143,-0.0142,-0.0037,-0.0034,-0.003,-0.0018,0,0,-0.0019,-0.0017,0,0,0,0,0,0,0,0,-0.0271,-0.0267,-0.0233,-0.023,-0.0226,-0.0178,-0.0171,-0.0132,-0.0144,-0.0173,-0.0143,-0.0142,-0.008,-0.0073,-0.0061,-0.0013,-0.0008,-0.0018,-0.0016,-0.0014,-0.0013,0,0,0,0,0,0,0,-0.0274,-0.0269,-0.0233,-0.0232,-0.0228,-0.0204,-0.0198,-0.0164,-0.0129,-0.0171,-0.0167,-0.0162,-0.0078,-0.0065,-0.0058,-0.0006,-0.0018,-0.0015,-0.0013,-0.0011,0.0066,0.0066,0,0,0,0,0,0,-0.0286,-0.0272,-0.0235,-0.0232,-0.0248,-0.0204,-0.0197,-0.0193,-0.013,-0.0121,-0.0162,-0.016,-0.0072,-0.0063,-0.0054,-0.0029,-0.0014,-0.0011,-0.0009,0.0066,0.0066,0.0066,0,0,0,0,0,0,-0.0288,-0.0284,-0.0238,-0.0251,-0.0244,-0.0204,-0.0199,-0.0192,-0.0179,-0.0124,-0.0114,-0.0158,-0.0071,-0.0059,-0.0025,-0.0025,-0.0009,-0.0006,0.0067,0.0066,0.0066,0.0017,0,0,0,0,0,0,-0.0289,-0.0285,-0.0288,-0.0252,-0.0243,-0.0229,-0.02,-0.0191,-0.0177,-0.0173,-0.0117,-0.0106,-0.007,-0.0031,-0.0021,-0.0019,-0.0003,0.0067,0.0066,0.0066,0.0019,0.0015,0.0012,0,0,0,0,0,-0.0291,-0.0301,-0.0289,-0.0284,-0.0249,-0.0229,-0.0223,-0.0192,-0.0178,-0.0177,-0.0136,-0.0108,-0.0026,-0.0028,-0.0016,-0.0013,0.0067,0.0067,0.0066,0.0021,0.0016,0.0012,0,0,0,0,0,0,-0.0323,-0.0296,-0.0282,-0.0282,-0.0261,-0.0221,-0.022,-0.0198,-0.0166,-0.0162,-0.0108,-0.0095,-0.0067,-0.0035,-0.0038,0.0007,0.0024,0.0026,-0.0014,-0.0018,-0.0022,-0.0031,0.0,0,0,0,0,0,-0.0333,-0.0333,-0.0301,-0.0302,-0.0295,-0.0259,-0.0248,-0.0228,-0.0194,-0.018,-0.014,-0.0098,-0.0061,-0.0036,-0.0004,0.0024,0.0062,0.0032,0.0029,0.0026,0.0025,0.0086,0.0088,0.0064,0.0064,0.0064,0,0,-0.0344,-0.033,-0.0329,-0.0309,-0.029,-0.0286,-0.0251,-0.0241,-0.0232,-0.0173,-0.0151,-0.0112,-0.0058,-0.0029,-0.0013,-0.0,0.005,0.0025,0.0022,0.0023,0.0086,0.0089,0.0091,0.0064,0.0064,0.0064,0,0,-0.0375,-0.0357,-0.037,-0.0356,-0.0336,-0.0311,-0.0312,-0.0277,-0.0256,-0.0232,-0.0186,-0.0144,-0.0096,-0.0049,-0.002,-0.0022,0.0024,-0.0019,-0.0035,0.0024,0.0027,0.003,0.0071,0.0078,-0.0014,-0.0014,-0.0014,0,-0.0391,-0.0401,-0.0371,-0.0379,-0.0371,-0.0327,-0.0337,-0.031,-0.0267,-0.0245,-0.0234,-0.0144,-0.0102,-0.0045,-0.0049,-0.0029,0.0003,-0.0023,0.002,0.0024,0.0028,0.007,0.0078,-0.0016,-0.0016,-0.0016,-0.0016,0,-0.0431,-0.0436,-0.0443,-0.0437,-0.0423,-0.0425,-0.0385,-0.0367,-0.0337,-0.03,-0.0248,-0.0184,-0.0126,-0.0108,-0.0079,-0.003,-0.0018,0.0004,0.0031,0.0027,0.0071,0.0081,-0.002,-0.0019,-0.0018,-0.0018,0,0,-0.0473,-0.0473,-0.0476,-0.0481,-0.0455,-0.0447,-0.043,-0.0395,-0.0375,-0.0326,-0.0288,-0.022,-0.0177,-0.0142,-0.009,-0.0039,0.0012,-0.0014,-0.0009,0.0025,0.013,0.0149,0.0162,0.0041,0.0042,0.0044,0.0146,0,-0.0514,-0.0551,-0.053,-0.0548,-0.0561,-0.0511,-0.0496,-0.0454,-0.0406,-0.0359,-0.0277,-0.0227,-0.019,-0.016,-0.0101,-0.0013,0.0036,-0.0018,0.0129,0.0133,0.0151,0.0174,0.0152,0.0242,0.0156,0.0157,0.0158,0,-0.056,-0.0579,-0.0615,-0.0604,-0.0602,-0.0601,-0.0558,-0.0536,-0.0453,-0.0413,-0.034,-0.0273,-0.0182,-0.0157,-0.0003,-0.0041,0.0033,0.0099,0.0105,0.0149,0.0171,0.0235,0.0264,0.0175,0.0174,0.0173,0.0171,0,-0.0613,-0.0632,-0.0664,-0.0663,-0.0646,-0.0642,-0.0624,-0.0557,-0.0528,-0.0443,-0.0408,-0.0291,-0.0221,-0.0114,0.0024,0.0011,0.019,0.0196,0.0283,0.0285,0.0309,0.0311,0.0297,0.0296,0.0296,0.0296,0.0296,0,-0.0666,-0.0688,-0.0695,-0.0712,-0.0736,-0.0697,-0.0691,-0.0652,-0.0581,-0.0533,-0.044,-0.0367,-0.0207,-0.0081,0.0023,0.019,0.0197,0.0287,0.0321,0.029,0.0288,0.0263,0.0258,0.03,0.0299,0.0298,0.0297,0,-0.0718,-0.0725,-0.0761,-0.0765,-0.0765,-0.0782,-0.0748,-0.0732,-0.0663,-0.0594,-0.0568,-0.0409,-0.0238,-0.0082,0.0115,0.0201,0.0346,0.0398,0.0342,0.0366,0.0396,0.0387,0.0505,0.0507,0.0508,0.0509,0.051,0,-0.0749,-0.0777,-0.081,-0.0835,-0.0841,-0.0851,-0.085,-0.0788,-0.0755,-0.0607,-0.0572,-0.0394,-0.0238,0.0046,0.0227,0.042,0.0407,0.049,0.0466,0.0401,0.0421,0.041,0.0399,0.0475,0.0476,0.0476,0.0477,0,-0.0803,-0.0816,-0.0847,-0.0905,-0.0926,-0.0937,-0.0921,-0.0897,-0.0793,-0.0712,-0.0547,-0.0408,-0.0121,0.0117,0.0349,0.0446,0.0455,0.0507,0.0483,0.0419,0.038,0.0397,0.0386,0.0481,0.0481,0.0481,0.048,0.048,-0.0835,-0.0877,-0.092,-0.0968,-0.0996,-0.0999,-0.0993,-0.0933,-0.0854,-0.0686,-0.0537,-0.0319,-0.0084,0.0258,0.0427,0.0547,0.0542,0.0558,0.0554,0.0549,0.0521,0.0486,0.0601,0.0602,0.0602,0.0602,0.0602,0,-0.0875,-0.0917,-0.0973,-0.1026,-0.1059,-0.1055,-0.1023,-0.0988,-0.0879,-0.0694,-0.0506,-0.0225,0.0049,0.0254,0.0473,0.0617,0.059,0.0611,0.0556,0.0551,0.0547,0.0515,0.0596,0.0597,0.0597,0.0597,0,0,-0.0897,-0.0963,-0.0994,-0.1062,-0.1091,-0.111,-0.1083,-0.0999,-0.0884,-0.0671,-0.0492,-0.0237,0.0033,0.0192,0.0382,0.0487,0.0463,0.0479,0.0468,0.0374,0.0367,0.0504,0.0448,0,0,0,0,0]}],[{"header":{"parameterUnit":"m.s-1","parameterCategory":2,"la1":30.2991,"la2":30.254,"lo1":-89.0895,"lo2":-89.0444,"dy":0.0017,"dx":0.0017,"nx":28,"ny":28,"refTime":"2024-06-04T03:00:00:Z","depth":"4","parameterNumber":2,"parameterNumberName":"U-component_of_CURRENTS"},"data":[0,0,0,0,0,0,0,0,0,0,0,0,0,0,0,0,0,0,0,0,0,0,0,0,0,0,0,0,0,0,0,0,0,0,0,0,0,0,0,0,0,0,0,0,0,0,0,0,0,0,0,0,0,0,0,0,0,0,-0.1473,-0.1474,0,-0.1523,-0.1524,-0.1524,-0.1549,-0.1549,-0.1549,-0.1549,-0.157,-0.1571,-0.1571,0,0,0,0,0,0,0,0,0,0,0,0,0,-0.1391,-0.1392,-0.1473,-0.1474,-0.1475,-0.1523,-0.1524,-0.1524,-0.1549,-0.1549,-0.1549,-0.1549,-0.157,-0.157,-0.1571,0,0,0,0,0,0,0,0,0,0,0,0,0,-0.1431,-0.1393,-0.1473,-0.1494,-0.1496,-0.1523,-0.1524,-0.1524,-0.1549,-0.1549,-0.1549,-0.1549,-0.157,-0.157,-0.1571,-0.157,0,0,-0.1573,-0.1573,0,0,0,0,0,0,0,0,-0.1429,-0.1434,-0.149,-0.1493,-0.1495,-0.1531,-0.1503,-0.1539,-0.1549,-0.1527,-0.1549,-0.1549,-0.1555,-0.1557,-0.1564,-0.1571,-0.1572,-0.1573,-0.1573,-0.1574,-0.1574,0,0,0,0,0,0,0,-0.1426,-0.1432,-0.1491,-0.1491,-0.1494,-0.1499,-0.1504,-0.151,-0.1537,-0.1529,-0.1531,-0.1539,-0.1557,-0.1563,-0.1565,-0.1572,-0.1573,-0.1574,-0.1574,-0.1574,-0.1626,-0.1627,0,0,0,0,0,0,-0.1424,-0.1429,-0.149,-0.1493,-0.1464,-0.15,-0.1506,-0.1518,-0.1538,-0.1542,-0.1539,-0.154,-0.1562,-0.1564,-0.1566,-0.1617,-0.1574,-0.1574,-0.1575,-0.1625,-0.1626,-0.1628,0,0,0,0,0,0,-0.1422,-0.1429,-0.1488,-0.1463,-0.1471,-0.1501,-0.1514,-0.1519,-0.1548,-0.1547,-0.155,-0.1566,-0.1563,-0.1565,-0.1591,-0.1616,-0.1574,-0.1575,-0.1624,-0.1626,-0.1627,-0.1687,0,0,0,0,0,0,-0.1419,-0.1428,-0.1447,-0.1463,-0.1473,-0.1518,-0.1515,-0.152,-0.1552,-0.1555,-0.157,-0.1571,-0.1563,-0.159,-0.1591,-0.1616,-0.1576,-0.1623,-0.1625,-0.1627,-0.1684,-0.169,-0.1696,0,0,0,0,0,-0.1416,-0.1437,-0.1447,-0.1455,-0.1494,-0.1519,-0.1525,-0.1545,-0.1554,-0.1571,-0.1583,-0.1572,-0.1603,-0.1592,-0.1593,-0.1618,-0.1622,-0.1624,-0.1626,-0.1681,-0.1689,-0.1696,0,0,0,0,0,0,-0.1412,-0.1442,-0.1453,-0.1484,-0.1508,-0.1524,-0.1546,-0.1559,-0.1583,-0.1591,-0.1587,-0.1589,-0.1619,-0.1611,-0.1599,-0.1638,-0.161,-0.1612,-0.1651,-0.1658,-0.1664,-0.1654,-0.1576,0,0,0,0,0,-0.142,-0.1445,-0.147,-0.1496,-0.151,-0.1533,-0.155,-0.1565,-0.1584,-0.1596,-0.1608,-0.1617,-0.1626,-0.1637,-0.1642,-0.1667,-0.1639,-0.1683,-0.1689,-0.1694,-0.1687,-0.1675,-0.1679,-0.1635,-0.1635,-0.1635,0,0,-0.1427,-0.1446,-0.1462,-0.1498,-0.1517,-0.1543,-0.1544,-0.1578,-0.1603,-0.1593,-0.1636,-0.1641,-0.1637,-0.1665,-0.1677,-0.1664,-0.1692,-0.1697,-0.1702,-0.1691,-0.1677,-0.1681,-0.1685,-0.1637,-0.1636,-0.1636,0,0,-0.1442,-0.147,-0.1493,-0.1516,-0.1553,-0.1566,-0.1581,-0.1614,-0.1635,-0.1673,-0.167,-0.169,-0.1713,-0.1713,-0.1714,-0.1756,-0.1724,-0.1764,-0.1791,-0.178,-0.1783,-0.1786,-0.1754,-0.1754,-0.1769,-0.1769,-0.1769,0,-0.1451,-0.148,-0.1504,-0.153,-0.1552,-0.1579,-0.1606,-0.1632,-0.1671,-0.1687,-0.1695,-0.1727,-0.1732,-0.175,-0.1769,-0.177,-0.1751,-0.1765,-0.1787,-0.1789,-0.1791,-0.1758,-0.1756,-0.1772,-0.1772,-0.1772,-0.1771,0,-0.1474,-0.1508,-0.1524,-0.1565,-0.1592,-0.1621,-0.1655,-0.1689,-0.1718,-0.1739,-0.1775,-0.1783,-0.1797,-0.1809,-0.1805,-0.1823,-0.1801,-0.1796,-0.1767,-0.1798,-0.1762,-0.1759,-0.1777,-0.1776,-0.1775,-0.1774,0,0,-0.1458,-0.1527,-0.1533,-0.1558,-0.1612,-0.1632,-0.1681,-0.1721,-0.1747,-0.179,-0.1815,-0.1846,-0.1852,-0.1852,-0.1852,-0.1849,-0.1851,-0.1834,-0.1832,-0.18,-0.1813,-0.1688,-0.1672,-0.1853,-0.1853,-0.1853,-0.1782,0,-0.1467,-0.1516,-0.1551,-0.16,-0.1625,-0.1669,-0.1707,-0.175,-0.1785,-0.1818,-0.1835,-0.1861,-0.1868,-0.1879,-0.1881,-0.1857,-0.1846,-0.1869,-0.1789,-0.1786,-0.1669,-0.1665,-0.1853,-0.178,-0.1779,-0.1779,-0.1778,0,-0.1465,-0.15,-0.155,-0.1612,-0.1628,-0.1666,-0.1721,-0.1761,-0.1812,-0.1838,-0.1868,-0.1881,-0.1896,-0.1893,-0.1867,-0.1883,-0.1853,-0.1829,-0.1826,-0.1682,-0.1655,-0.1742,-0.1772,-0.1773,-0.1773,-0.1774,-0.1774,0,-0.1418,-0.1493,-0.1531,-0.1555,-0.1632,-0.1666,-0.171,-0.1769,-0.1796,-0.1851,-0.1865,-0.189,-0.1892,-0.1876,-0.1842,-0.1859,-0.1788,-0.1803,-0.1656,-0.1646,-0.1756,-0.1754,-0.177,-0.177,-0.177,-0.177,-0.1771,0,-0.1391,-0.1423,-0.1519,-0.1536,-0.1579,-0.1649,-0.1693,-0.1739,-0.1795,-0.1805,-0.1872,-0.1859,-0.1889,-0.1857,-0.1832,-0.1718,-0.1779,-0.1642,-0.1615,-0.1782,-0.1784,-0.1753,-0.1752,-0.1768,-0.1768,-0.1769,-0.1769,0,-0.1321,-0.1389,-0.1433,-0.1526,-0.1557,-0.1586,-0.1672,-0.1694,-0.1766,-0.1776,-0.1793,-0.1832,-0.1782,-0.1778,-0.173,-0.1677,-0.1602,-0.1546,-0.1705,-0.1691,-0.1473,-0.1476,-0.1376,-0.1371,-0.1367,-0.1363,-0.136,0,-0.1285,-0.1305,-0.1405,-0.1429,-0.1474,-0.1535,-0.1567,-0.1661,-0.1675,-0.173,-0.171,-0.1703,-0.1705,-0.1524,-0.1551,-0.1472,-0.1458,-0.142,-0.1466,-0.1447,-0.1431,-0.1441,-0.145,-0.1353,-0.1352,-0.1351,-0.135,0,-0.1203,-0.1252,-0.1285,-0.1337,-0.1383,-0.1422,-0.1477,-0.1475,-0.1558,-0.1639,-0.1569,-0.1532,-0.1461,-0.1418,-0.1357,-0.1313,-0.1452,-0.1375,-0.1385,-0.1428,-0.1418,-0.1409,-0.1423,-0.1335,-0.1337,-0.1338,-0.1339,0,-0.1135,-0.1138,-0.1189,-0.1218,-0.1275,-0.1282,-0.1331,-0.1336,-0.1361,-0.1434,-0.1398,-0.1391,-0.1427,-0.1331,-0.1279,-0.1218,-0.121,-0.119,-0.121,-0.1227,-0.1212,-0.118,-0.0981,0,0,0,0,0,-0.1056,-0.1045,-0.1065,-0.1086,-0.1138,-0.1162,-0.1252,-0.1305,-0.1387,-0.1294,-0.1343,-0.127,-0.119,-0.1195,-0.1097,-0.1214,-0.122,-0.1099,-0.1211,-0.1251,-0.1269,-0.1266,0,0,0,0,0,0,-0.1001,-0.1015,-0.1018,-0.0964,-0.095,-0.0985,-0.1035,-0.1098,-0.1061,-0.115,-0.1105,-0.1177,-0.1111,-0.1192,-0.1055,-0.1057,-0.1101,-0.111,-0.1107,-0.1242,-0.1257,-0.1271,-0.1275,0,0,0,0,0]},{"header":{"parameterUnit":"m.s-1","parameterCategory":2,"la1":30.2991,"la2":30.254,"lo1":-89.0895,"lo2":-89.0444,"dy":0.0017,"dx":0.0017,"nx":28,"ny":28,"refTime":"2024-06-04T03:00:00:Z","depth":"4","parameterNumber":3,"parameterNumberName":"V-component_of_CURRENTS"},"data":[0,0,0,0,0,0,0,0,0,0,0,0,0,0,0,0,0,0,0,0,0,0,0,0,0,0,0,0,0,0,0,0,0,0,0,0,0,0,0,0,0,0,0,0,0,0,0,0,0,0,0,0,0,0,0,0,0,0,-0.0162,-0.0161,0,-0.0114,-0.0114,-0.0113,-0.0082,-0.0081,-0.0081,-0.0081,-0.0009,-0.0007,-0.0005,0,0,0,0,0,0,0,0,0,0,0,0,0,-0.0205,-0.0204,-0.0162,-0.0161,-0.016,-0.0114,-0.0114,-0.0113,-0.0082,-0.0081,-0.0081,-0.0081,-0.0009,-0.0007,-0.0005,0,0,0,0,0,0,0,0,0,0,0,0,0,-0.0174,-0.0204,-0.0162,-0.014,-0.0137,-0.0115,-0.0114,-0.0113,-0.0082,-0.0081,-0.0081,-0.0081,-0.001,-0.0007,-0.0005,0.0007,0,0,0.0004,0.0005,0,0,0,0,0,0,0,0,-0.0176,-0.0172,-0.0143,-0.0141,-0.0138,-0.0104,-0.0102,-0.0072,-0.0082,-0.0102,-0.0081,-0.0081,-0.0039,-0.0034,-0.0025,0.001,0.0013,0.0004,0.0005,0.0007,0.0007,0,0,0,0,0,0,0,-0.0178,-0.0174,-0.0142,-0.0143,-0.014,-0.0125,-0.0121,-0.0096,-0.0071,-0.01,-0.0098,-0.0094,-0.0037,-0.0028,-0.0023,0.0014,0.0004,0.0006,0.0008,0.0009,0.0054,0.0054,0,0,0,0,0,0,-0.0186,-0.0176,-0.0144,-0.0141,-0.0158,-0.0125,-0.012,-0.0115,-0.0072,-0.0066,-0.0094,-0.0093,-0.0032,-0.0026,-0.002,-0.0009,0.0007,0.0009,0.0011,0.0055,0.0054,0.0054,0,0,0,0,0,0,-0.0187,-0.0184,-0.0146,-0.0158,-0.0152,-0.0125,-0.0119,-0.0114,-0.0108,-0.0068,-0.0061,-0.0094,-0.0032,-0.0024,-0.0002,-0.0006,0.001,0.0013,0.0055,0.0055,0.0054,0.0016,0,0,0,0,0,0,-0.0189,-0.0184,-0.0188,-0.0159,-0.0152,-0.014,-0.0119,-0.0113,-0.0106,-0.0103,-0.0065,-0.0058,-0.0031,-0.0006,0.0001,-0.0002,0.0015,0.0056,0.0055,0.0054,0.0018,0.0014,0.0011,0,0,0,0,0,-0.019,-0.0195,-0.0188,-0.0184,-0.0156,-0.014,-0.0136,-0.0115,-0.0106,-0.0107,-0.0079,-0.0059,-0.0006,-0.0004,0.0004,0.0002,0.0056,0.0055,0.0054,0.0019,0.0015,0.0012,0,0,0,0,0,0,-0.0214,-0.0192,-0.0183,-0.0181,-0.0166,-0.0135,-0.0136,-0.0121,-0.01,-0.0099,-0.006,-0.0051,-0.0036,-0.0013,-0.0012,0.0012,0.0027,0.0027,-0.0003,-0.0006,-0.0009,-0.0022,0.0017,0,0,0,0,0,-0.0222,-0.0221,-0.0196,-0.0196,-0.0191,-0.0166,-0.0158,-0.0145,-0.0121,-0.0112,-0.0085,-0.0057,-0.0033,-0.0017,0.0005,0.0022,0.0051,0.0024,0.002,0.0017,0.0012,0.0063,0.0065,0.0051,0.0051,0.0051,0,0,-0.023,-0.0219,-0.0218,-0.0202,-0.0189,-0.0189,-0.0161,-0.0155,-0.0153,-0.0107,-0.0098,-0.0069,-0.0032,-0.0016,-0.0007,0.0004,0.0035,0.0016,0.0014,0.001,0.0063,0.0064,0.0066,0.005,0.005,0.0051,0,0,-0.0253,-0.0239,-0.025,-0.0241,-0.0229,-0.0211,-0.0213,-0.0188,-0.0176,-0.0162,-0.0129,-0.01,-0.007,-0.0036,-0.0016,-0.0024,0.0012,-0.0025,-0.0044,0.0006,0.0008,0.001,0.0041,0.0046,-0.0021,-0.0021,-0.0021,0,-0.0268,-0.0275,-0.0251,-0.0261,-0.0259,-0.0225,-0.0238,-0.0219,-0.019,-0.0179,-0.0169,-0.0109,-0.0077,-0.0042,-0.0047,-0.003,-0.0005,-0.0031,0.0003,0.0005,0.0008,0.004,0.0046,-0.0023,-0.0023,-0.0023,-0.0023,0,-0.0298,-0.0307,-0.0313,-0.0314,-0.0306,-0.0312,-0.0285,-0.0276,-0.0257,-0.0232,-0.02,-0.0149,-0.011,-0.0097,-0.0075,-0.0042,-0.0033,-0.001,0.0014,0.0007,0.0041,0.0048,-0.0026,-0.0025,-0.0025,-0.0024,0,0,-0.0327,-0.0335,-0.034,-0.0351,-0.0337,-0.0336,-0.033,-0.0312,-0.0305,-0.0268,-0.0249,-0.0199,-0.0164,-0.014,-0.0098,-0.0056,-0.0015,-0.0033,-0.0029,-0.0001,0.0081,0.0069,0.0076,0.0014,0.0015,0.0016,0.0093,0,-0.0362,-0.04,-0.0387,-0.0415,-0.0431,-0.0399,-0.0396,-0.0372,-0.0341,-0.0312,-0.0247,-0.0215,-0.0181,-0.0158,-0.011,-0.0037,0.0002,-0.0039,0.0081,0.0085,0.0077,0.0084,0.002,0.0099,0.01,0.0102,0.0103,0,-0.0399,-0.0421,-0.0462,-0.0471,-0.0474,-0.0482,-0.0467,-0.0457,-0.0402,-0.0376,-0.0321,-0.0266,-0.0195,-0.0167,-0.0042,-0.0072,-0.0007,0.0049,0.0054,0.0061,0.0087,0.0109,0.0116,0.0115,0.0114,0.0113,0.0112,0,-0.0439,-0.0469,-0.0507,-0.0512,-0.0516,-0.0525,-0.0521,-0.0483,-0.0469,-0.0411,-0.0388,-0.0295,-0.0239,-0.0146,-0.0027,-0.0033,0.0108,0.0122,0.0172,0.0172,0.0176,0.0173,0.0204,0.0204,0.0204,0.0203,0.0203,0,-0.0478,-0.0508,-0.0535,-0.0556,-0.0594,-0.0575,-0.059,-0.0569,-0.0527,-0.0498,-0.0423,-0.0369,-0.0231,-0.0128,-0.0033,0.0091,0.0111,0.0166,0.0194,0.0156,0.015,0.0181,0.0177,0.0206,0.0206,0.0205,0.0205,0,-0.0512,-0.0531,-0.0578,-0.0605,-0.0616,-0.0644,-0.0644,-0.0643,-0.0601,-0.0558,-0.0538,-0.0414,-0.0276,-0.0144,0.0025,0.0086,0.0204,0.0242,0.0181,0.0204,0.023,0.0224,0.0298,0.0299,0.0299,0.0299,0.0299,0,-0.0532,-0.0562,-0.0621,-0.0654,-0.0672,-0.0704,-0.0719,-0.0689,-0.0672,-0.0573,-0.0546,-0.041,-0.0314,-0.0086,0.0041,0.0213,0.0235,0.0277,0.0257,0.0222,0.0242,0.0235,0.0228,0.03,0.03,0.03,0.03,0,-0.0566,-0.0592,-0.063,-0.0703,-0.0741,-0.077,-0.078,-0.0764,-0.0701,-0.067,-0.0526,-0.0395,-0.0241,-0.007,0.0061,0.0183,0.0239,0.028,0.028,0.0261,0.0225,0.0243,0.0236,0.0301,0.0301,0.0301,0.0301,0,-0.0586,-0.0626,-0.0681,-0.0737,-0.0791,-0.0809,-0.0809,-0.0759,-0.0726,-0.06,-0.0548,-0.0373,-0.0262,-0.0084,0.0041,0.0154,0.0176,0.0194,0.0199,0.0199,0.0142,0.0079,0.0136,0,0,0,0,0,-0.0602,-0.0645,-0.0706,-0.0768,-0.082,-0.0841,-0.0835,-0.0815,-0.0745,-0.0646,-0.0588,-0.0434,-0.0217,-0.0121,-0.0007,0.0019,0.017,0.015,0.0186,0.0306,0.0305,0.0253,0,0,0,0,0,0,-0.0613,-0.0676,-0.0708,-0.0776,-0.0814,-0.0859,-0.0847,-0.08,-0.0729,-0.0642,-0.052,-0.0436,-0.0228,-0.0282,-0.0014,0.0021,0.0051,0.0257,0.0258,0.0306,0.0305,0.0305,0.0251,0,0,0,0,0]}]]